Weather History for McCall, ID

Change the Weather History Date:

Tuesday, January 21, 2014

  Actual Average Record
Temperature  
Mean Temperature 21 °F 20 °F  
Max Temperature 35 °F 29 °F 44 °F (1968)
Min Temperature 6 °F 11 °F -33 °F (1937)
Degree Days  
Heating Degree Days 44 45  
Month to date heating degree days 905 954  
Since 1 July heating degree days 4451 5028  
Cooling Degree Days 0 0  
Month to date cooling degree days 0 0  
Year to date cooling degree days 0 0  
Moisture  
Dew Point 13 °F    
Average Humidity 78    
Maximum Humidity 92    
Minimum Humidity 63    
Precipitation  
Precipitation T in 0.06 in 1.30 in (1943)
Month to date precipitation 1.04 1.21  
Year to date precipitation 1.04 1.21  
Sea Level Pressure  
Sea Level Pressure 30.50 in    
Wind  
Wind Speed 1 mph (SSE)    
Max Wind Speed 6 mph    
Max Gust Speed 6 mph    
Visibility 8 miles    
Events Fog , Snow    
T = Trace of Precipitation, MM = Missing Value Source: NWS Daily Summary

Daily Weather History Graph

Daily Weather History Graph

Search for Another Location

Airport:

Trip Planner

Search our weather history database for the weather conditions in past years. The results will help you decide how hot, cold, wet, or windy it might be!

Date:

Astronomy

Jan. 21, 2014 Rise Set
Actual Time 8:14 AM MST 5:37 PM MST
Civil Twilight 7:42 AM MST 6:09 PM MST
Nautical Twilight 7:06 AM MST 6:45 PM MST
Astronomical Twilight 6:31 AM MST 7:20 PM MST
Moon 11:31 PM MST (1/21) 10:31 AM MST (1/21)
Length of Visible Light 10h 27m
Length of Day
9h 22m
Waning Gibbous, 74% of the Moon is Illuminated
Jan 21
Waning Gibbous
Jan 23
Last Quarter
Jan 30
New
Feb 6
First Quarter
Feb 14
Full

Hourly Weather History & Observations

Time (MST) Temp. Windchill Dew Point Humidity Pressure Visibility Wind Dir Wind Speed Gust Speed Precip Events Conditions
12:51 AM 14.0 °F - 10.0 °F 84% 30.61 in 10.0 mi Calm Calm - N/A   Clear
1:51 AM 12.9 °F - 8.1 °F 81% 30.59 in 5.0 mi Calm Calm - N/A   Haze
2:51 AM 10.9 °F - 8.1 °F 88% 30.58 in 10.0 mi Calm Calm - N/A   Clear
3:51 AM 12.0 °F - 8.1 °F 84% 30.57 in 10.0 mi Calm Calm - N/A   Clear
4:51 AM 9.0 °F - 5.0 °F 84% 30.56 in 7.0 mi Calm Calm - N/A   Clear
5:51 AM 9.0 °F - 5.0 °F 84% 30.58 in 10.0 mi Calm Calm - N/A   Clear
6:51 AM 7.0 °F - 3.0 °F 84% 30.60 in 10.0 mi Calm Calm - N/A   Clear
7:51 AM 8.1 °F - 3.0 °F 80% 30.60 in 10.0 mi Calm Calm - N/A   Clear
8:51 AM 6.1 °F - 1.9 °F 83% 30.61 in 10.0 mi Calm Calm - N/A   Clear
9:47 AM 12.2 °F - 10.4 °F 92% 30.40 in 0.5 mi Calm Calm - 0.00 in Fog , Snow Light Snow
9:51 AM 12.0 °F - 10.0 °F 92% 30.60 in 0.5 mi Calm Calm - 0.00 in Fog , Snow Light Snow
10:26 AM 10.9 °F 4.7 °F 10.9 °F 100% 30.40 in 2.0 mi SSW 3.5 mph - 0.00 in   Partly Cloudy
10:32 AM 10.9 °F 4.7 °F 10.9 °F 100% 30.40 in 10.0 mi South 3.5 mph - 0.00 in   Partly Cloudy
10:51 AM 14.0 °F - 12.9 °F 95% 30.60 in 9.0 mi Calm Calm - 0.00 in   Clear
11:41 AM 18.0 °F - 17.1 °F 96% 30.39 in 2.0 mi Calm Calm - N/A   Partly Cloudy
11:47 AM 19.4 °F 14.3 °F 17.6 °F 93% 30.39 in 1.2 mi SSE 3.5 mph - N/A   Partly Cloudy
11:51 AM 19.0 °F 13.9 °F 17.1 °F 92% 30.57 in 3.0 mi SSE 3.5 mph - N/A   Partly Cloudy
12:16 PM 21.0 °F 16.2 °F 19.0 °F 92% 30.38 in 1.8 mi SE 3.5 mph - N/A   Partly Cloudy
12:25 PM 23.0 °F - 21.0 °F 92% 30.37 in 4.0 mi Calm Calm - N/A   Clear
12:51 PM 24.1 °F 19.7 °F 21.0 °F 88% 30.53 in 10.0 mi SSE 3.5 mph - N/A   Clear
1:51 PM 27.0 °F 21.6 °F 19.9 °F 75% 30.48 in 10.0 mi South 4.6 mph - N/A   Clear
2:51 PM 28.9 °F 25.2 °F 18.0 °F 64% 30.46 in 10.0 mi SE 3.5 mph - N/A   Clear
3:51 PM 30.0 °F 25.2 °F 19.9 °F 66% 30.44 in 10.0 mi South 4.6 mph - N/A   Clear
4:51 PM 28.9 °F 25.2 °F 18.0 °F 64% 30.45 in 10.0 mi SSE 3.5 mph - N/A   Clear
5:51 PM 28.0 °F - 18.0 °F 66% 30.45 in 10.0 mi Calm Calm - N/A   Clear
6:51 PM 25.0 °F - 17.1 °F 72% 30.47 in 10.0 mi Calm Calm - N/A   Clear
7:51 PM 21.9 °F - 15.1 °F 75% 30.47 in 10.0 mi Calm Calm - N/A   Clear
8:51 PM 19.9 °F 14.9 °F 15.1 °F 81% 30.48 in 10.0 mi NNE 3.5 mph - N/A   Clear
9:51 PM 17.1 °F - 12.0 °F 81% 30.46 in 10.0 mi Calm Calm - N/A   Clear
10:51 PM 17.1 °F - 12.9 °F 84% 30.45 in 10.0 mi Calm Calm - N/A   Clear
11:51 PM 16.0 °F - 12.9 °F 88% 30.43 in 7.0 mi Calm Calm - N/A   Clear